sat.trackr.live / text

‹ back to catalog

CONNECTA IOT-4

NORAD 60524 · 2024-149BJ

PAYLOAD ACTIVE UNKNOWN

§ Identity

Operator
Country
TURK
Launch date
2024-08-16
Launch site
AFWTR
Launch vehicle
Mass (kg)
RCS (m²)

External: N2YO · Heavens-Above · Gunter

§ Orbital elements

Epoch: 2026-09-22T11:44:31.270848Z

Period
93.14 min
Inclination
97.3747°
Eccentricity
0.0003909
Mean motion
15.45990644 rev/d
Perigee alt
425.8 km
Apogee alt
431.1 km
Semi-major
6,806.6 km
B*
4.3907e-4
RAAN
351.2348°
Arg perigee
294.8557°
Mean anomaly
65.2285°
Rev number
11,734

§ Raw data

CONNECTA IOT-41 60524U 24149BJ  26265.48925082  .00021355  00000+0  43907-3 0  99972 60524  97.3747 351.2348 0003909 294.8557  65.2285 15.45990644117344

JSON: /api/v1/satellites/60524 · /tle

For live sub-satellite position, see the globe view (requires WebGL).

§ Visibility from observer

Set your observer location to see the next 7 days of passes ≥ 10°. The values pass through the URL so the page stays shareable.

No JS? Fill the form by hand. The geolocation button needs JavaScript.

§ Radio — SatNOGS DB

ModeDescriptionDownlinkUplink
GMSK Mode U - GMSK 4k8 AX.25 TLM 401.540 MHz
LoRa Mode U - LoRa 869.525 MHz
FM S-band telemetry 2.240 GHz

3 transmitters · refreshed weekly from db.satnogs.org